Regional Weather Roundup
Issued by NWS

Home | Current Version | Previous Version | Graphics & Text | Print | Product List | Glossary On
Versions: 1 2 3 4 5 6 7 8 9 10 11 12 13 14 15 16 17 18 19 20 21 22 23 24 25 26 27 28 29 30 31 32 33 34 35 36 37 38 39 40 41 42 43 44 45 46 47 48 49 50
000
ASUS43 KDTX 012210
RWRMI
MICHIGAN HOURLY REGIONAL WEATHER ROUNDUP
NATIONAL WEATHER SERVICE DETROIT/PONTIAC MI
600 PM EDT WED OCT 01 2014

NOTE: "FAIR" INDICATES FEW OR NO CLOUDS BELOW 12,000 FEET WITH NO
SIGNIFICANT WEATHER AND/OR OBSTRUCTION TO VISIBILITY.

MIZ047>049-052>055-059>063-066>070-074>076-081>083-012300-
SOUTHEAST LOWER MICHIGAN

CITY           SKY/WX    TMP DP  RH WIND       PRES   REMARKS
ADRIAN         SUNNY     66  49  54 S6        30.01F
ALMA           SUNNY     64  50  62 CALM      30.01S
ANN ARBOR      SUNNY     67  49  52 S9        30.00F
BAD AXE        MOSUNNY   62  59  90 SE7       30.03S FOG
DETROIT CITY   MOSUNNY  N/A N/A N/A MISG        N/A
DETROIT        PTSUNNY   65  53  65 SE3       30.02S
FLINT          MOSUNNY   67  54  63 SE8       30.01S
GROSSE ILE     PTSUNNY   64  55  72 CALM      30.00S
HILLSDALE      SUNNY     65  48  52 SE6       30.01S
HOWELL         MOSUNNY   65  50  59 SE7       30.00F

CITY           SKY/WX    TMP DP  RH WIND       PRES   REMARKS
JACKSON        SUNNY     65  49  56 S10       30.00F
LAMBERTVILLE   SUNNY     66  52  59 E5        30.01S
LANSING        MOSUNNY   65  49  56 SE12      30.00S
LAPEER         NOT AVBL
MASON          SUNNY     65  49  56 S9        30.00S
MT. CLEMENS    PTSUNNY   66  57  73 SE6       30.00F
PONTIAC        MOSUNNY   65  51  60 SE6       30.01S
PORT HOPE        N/A     62  56  80 SE12      30.02S
PORT HURON     SUNNY     63  59  88 CALM      30.02S
TRI CITIES     SUNNY     67  52  58 S9        30.01S
YPSILANTI      PTSUNNY   70  52  52 S7        30.02S
$$
MIZ043>046-050>051-056>058-064>065-071>073-077>080-012300-
SOUTHWEST LOWER MICHIGAN

CITY           SKY/WX    TMP DP  RH WIND       PRES   REMARKS
BATTLE CREEK   SUNNY     66  48  52 SE9       30.00S
BENTON HARBOR  SUNNY     66  51  58 SE9       29.94F
BIG RAPIDS     CLOUDY    59  54  82 S14       29.98F
COLDWATER      SUNNY     67  49  53 SE8       29.99F
HOLLAND        SUNNY     65  52  62 SE13      29.97F
GRAND RAPIDS   MOSUNNY   65  53  65 S9        29.98F
KALAMAZOO      SUNNY     66  49  54 SE8       29.99F
MARSHALL       SUNNY     65  48  55 S6        29.99S
MUSKEGON       PTSUNNY   63  49  60 SE14      29.96F
$$
MIZ016>042-012300-
NORTHERN LOWER MICHIGAN

CITY           SKY/WX    TMP DP  RH WIND       PRES   REMARKS
ALPENA         CLOUDY    58  57  97 SE7       30.03S FOG
BEAVER ISLAND  MOSUNNY   63  56  77 SE9       29.98S
BELLAIRE       MOSUNNY   65  52  62 SE6       29.97S
CADILLAC       MOSUNNY   61  51  70 SE9       29.97F
CHARLEVOIX     MOSUNNY   65  55  70 SE8       29.99F
FRANKFORT      MOCLDY    58  52  78 SW3       29.96F
GAYLORD        MOSUNNY   61  53  75 SE9       29.99F
GRAYLING       PTSUNNY   64  53  66 SE13      30.00S
HARBOR SPRINGS MOSUNNY   63  55  77 E8        29.98S
HOUGHTON LAKE  PTSUNNY   63  52  67 S12       30.00S
OSCODA         CLOUDY    60  58  95 SE6       30.02S FOG
PELLSTON       CLOUDY    61  56  83 E8        29.99F
TRAVERSE CITY  MOSUNNY   64  52  64 S6        29.95F
$$
MIZ007>008-015-012300-
EASTERN UPPER MICHIGAN

CITY           SKY/WX    TMP DP  RH WIND       PRES   REMARKS
MACKINAC ISLAN FOG       55  55 100 E7        30.00F VSB 1/2
NEWBERRY       CLOUDY    56  53  91 SE8       29.97F
S. S. MARIE    CLOUDY    54  52  93 SE8G16    30.01S FOG
$$
MIZ004>006-011>014-085-012300-
CENTRAL UPPER MICHIGAN

CITY           SKY/WX    TMP DP  RH WIND       PRES   REMARKS
MANISTIQUE     CLOUDY    56  54  91 S6        29.97S
SAWYER-GWINN   CLOUDY    55  48  76 S16G24    29.92F
$$
MIZ001>003-009>011-084-012300-
WESTERN UPPER MICHIGAN

CITY           SKY/WX    TMP DP  RH WIND       PRES   REMARKS
IRON MOUNTAIN  CLOUDY    55  49  80 SE10G18   29.90F
HOUGHTON       CLOUDY    57  47  69 S12       29.84F
COPPER HARBOR    N/A     58  49  72 VRB5      29.85F
$$

ABBREVIATIONS USED IN REMARKS
   TC - TEMPERATURE IN CELSIUS
  WCI - WIND CHILL INDEX
   HX - HEAT INDEX
  VSB - VISIBILITY



USA.gov is the U.S. government's official web portal to all federal, state and local government web resources and services.